Time,TemperatureF,DewpointF,PressureIn,WindDirection,WindDirectionDegrees,WindSpeedMPH,WindSpeedGustMPH,Humidity,HourlyPrecipIn,Conditions,Clouds,dailyrainin,SoftwareType,DateUTC
2013-03-13 00:00:00,39.6,28.4,29.06,SW,220,0.0,0.0,64,0.00,,SKC,0.00,VWS V14.00,2013-03-13 04:00:00,
2013-03-13 00:02:00,39.4,28.2,29.06,SSW,213,0.0,0.0,64,0.00,,SKC,0.00,VWS V14.00,2013-03-13 04:02:00,
2013-03-13 00:07:00,39.2,28.1,29.06,SW,214,0.0,0.0,64,0.00,,SKC,0.00,VWS V14.00,2013-03-13 04:07:00,
2013-03-13 00:12:00,39.2,28.4,29.06,SSW,213,0.0,0.0,65,0.00,,SKC,0.00,VWS V14.00,2013-03-13 04:12:00,
2013-03-13 00:17:00,39.0,28.3,29.06,SSW,213,0.0,0.0,65,0.00,,SKC,0.00,VWS V14.00,2013-03-13 04:17:00,
2013-03-13 00:22:00,38.8,28.1,29.06,SW,214,0.0,0.0,65,0.00,,SKC,0.00,VWS V14.00,2013-03-13 04:22:00,
2013-03-13 00:27:00,38.7,27.9,29.06,SW,214,0.0,0.0,65,0.00,,SKC,0.00,VWS V14.00,2013-03-13 04:27:00,
2013-03-13 00:32:00,38.7,27.9,29.06,SSW,213,0.0,0.0,65,0.00,,SKC,0.00,VWS V14.00,2013-03-13 04:32:00,
2013-03-13 00:37:00,38.5,27.8,29.06,SW,214,0.0,0.0,65,0.00,,SKC,0.00,VWS V14.00,2013-03-13 04:37:00,
2013-03-13 00:42:00,38.3,27.6,29.06,SSW,209,0.0,0.0,65,0.00,,SKC,0.00,VWS V14.00,2013-03-13 04:42:00,
2013-03-13 00:47:00,38.1,27.4,29.06,SSW,208,0.0,0.0,65,0.00,,SKC,0.00,VWS V14.00,2013-03-13 04:47:00,
2013-03-13 00:57:00,37.9,27.6,29.06,SSW,208,0.0,0.0,66,0.00,,SKC,0.00,VWS V14.00,2013-03-13 04:57:00,
2013-03-13 01:02:00,37.8,27.4,29.06,SSW,208,0.0,0.0,66,0.00,,SKC,0.00,VWS V14.00,2013-03-13 05:02:00,
2013-03-13 01:07:00,37.6,27.3,29.06,SSW,208,0.0,0.0,66,0.00,,SKC,0.00,VWS V14.00,2013-03-13 05:07:00,
2013-03-13 01:12:00,37.4,27.1,29.06,SSW,208,0.0,0.0,66,0.00,,SKC,0.00,VWS V14.00,2013-03-13 05:12:00,
2013-03-13 01:17:00,37.2,27.3,29.06,SSW,208,0.0,0.0,67,0.00,,SKC,0.00,VWS V14.00,2013-03-13 05:17:00,
2013-03-13 01:22:00,37.2,27.3,29.06,SSW,208,0.0,0.0,67,0.00,,SKC,0.00,VWS V14.00,2013-03-13 05:22:00,
2013-03-13 01:27:00,37.0,27.1,29.06,SSW,208,0.0,0.0,67,0.00,,SKC,0.00,VWS V14.00,2013-03-13 05:27:00,
2013-03-13 01:32:00,36.9,26.9,29.06,SSW,207,0.0,0.0,67,0.00,,SKC,0.00,VWS V14.00,2013-03-13 05:32:00,
2013-03-13 01:37:00,36.9,26.9,29.06,SSW,207,0.0,0.0,67,0.00,,SKC,0.00,VWS V14.00,2013-03-13 05:37:00,
2013-03-13 01:42:00,36.7,26.8,29.06,SSW,205,0.0,0.0,67,0.00,,SKC,0.00,VWS V14.00,2013-03-13 05:42:00,
2013-03-13 01:47:00,36.5,26.6,29.06,SSW,205,0.0,0.0,67,0.00,,SKC,0.00,VWS V14.00,2013-03-13 05:47:00,
2013-03-13 01:52:00,36.3,26.4,29.06,SSW,205,0.0,0.0,67,0.00,,SKC,0.00,VWS V14.00,2013-03-13 05:52:00,
2013-03-13 01:57:00,36.3,26.4,29.06,SSW,205,0.0,0.0,67,0.00,,SKC,0.00,VWS V14.00,2013-03-13 05:57:00,
2013-03-13 02:02:00,36.1,26.3,29.06,SSW,205,0.0,0.0,67,0.00,,SKC,0.00,VWS V14.00,2013-03-13 06:02:00,
2013-03-13 02:07:00,36.0,26.1,29.06,SSW,206,0.0,0.0,67,0.00,,SKC,0.00,VWS V14.00,2013-03-13 06:07:00,
2013-03-13 02:13:00,35.8,25.9,29.06,SSW,206,0.0,0.0,67,0.00,,SKC,0.00,VWS V14.00,2013-03-13 06:13:00,
2013-03-13 02:18:00,35.6,25.7,29.06,SSW,205,0.0,0.0,67,0.00,,SKC,0.00,VWS V14.00,2013-03-13 06:18:00,
2013-03-13 02:23:00,35.6,26.1,29.06,SSW,206,0.0,0.0,68,0.00,,SKC,0.00,VWS V14.00,2013-03-13 06:23:00,
2013-03-13 02:28:00,35.4,25.9,29.06,SSW,205,0.0,0.0,68,0.00,,SKC,0.00,VWS V14.00,2013-03-13 06:28:00,
2013-03-13 02:33:00,35.4,25.9,29.06,SSW,205,0.0,0.0,68,0.00,,SKC,0.00,VWS V14.00,2013-03-13 06:33:00,
2013-03-13 02:38:00,35.2,25.8,29.06,SSW,205,0.0,0.0,68,0.00,,SKC,0.00,VWS V14.00,2013-03-13 06:38:00,
2013-03-13 02:43:00,35.2,25.8,29.06,SSW,205,0.0,0.0,68,0.00,,SKC,0.00,VWS V14.00,2013-03-13 06:43:00,
2013-03-13 02:48:00,35.1,25.6,29.06,SSW,205,0.0,0.0,68,0.00,,SKC,0.00,VWS V14.00,2013-03-13 06:48:00,
2013-03-13 02:53:00,35.1,25.6,29.06,SSW,205,0.0,0.0,68,0.00,,SKC,0.00,VWS V14.00,2013-03-13 06:53:00,
2013-03-13 02:58:00,34.9,25.4,29.06,SSW,206,0.0,0.0,68,0.00,,SKC,0.00,VWS V14.00,2013-03-13 06:58:00,
2013-03-13 03:03:00,34.9,25.4,29.06,SSW,205,0.0,0.0,68,0.00,,SKC,0.00,VWS V14.00,2013-03-13 07:03:00,
2013-03-13 03:08:00,34.7,25.6,29.06,SSW,205,0.0,0.0,69,0.00,,SKC,0.00,VWS V14.00,2013-03-13 07:08:00,
2013-03-13 03:13:00,34.7,25.6,29.06,SSW,205,0.0,0.0,69,0.00,,SKC,0.00,VWS V14.00,2013-03-13 07:13:00,
2013-03-13 03:18:00,34.5,25.4,29.06,SSW,205,0.0,0.0,69,0.00,,SKC,0.00,VWS V14.00,2013-03-13 07:18:00,
2013-03-13 03:23:00,34.5,25.4,29.06,SSW,205,0.0,0.0,69,0.00,,SKC,0.00,VWS V14.00,2013-03-13 07:23:00,
2013-03-13 03:34:00,34.3,25.2,29.03,SSW,205,0.0,0.0,69,0.00,,SKC,0.00,VWS V14.00,2013-03-13 07:34:00,
2013-03-13 03:39:00,34.3,25.2,29.03,SSW,205,0.0,0.0,69,0.00,,SKC,0.00,VWS V14.00,2013-03-13 07:39:00,
2013-03-13 03:44:00,34.3,25.2,29.03,SSW,205,0.0,0.0,69,0.00,,SKC,0.00,VWS V14.00,2013-03-13 07:44:00,
2013-03-13 03:49:00,34.2,25.4,29.03,SSW,205,0.0,0.0,70,0.00,,SKC,0.00,VWS V14.00,2013-03-13 07:49:00,
2013-03-13 03:54:00,34.2,25.4,29.03,SSW,205,0.0,0.0,70,0.00,,SKC,0.00,VWS V14.00,2013-03-13 07:54:00,
2013-03-13 03:59:00,34.0,25.2,29.03,SSW,205,0.0,0.0,70,0.00,,SKC,0.00,VWS V14.00,2013-03-13 07:59:00,
2013-03-13 04:04:00,34.0,25.2,29.03,SSW,205,0.0,0.0,70,0.00,,SKC,0.00,VWS V14.00,2013-03-13 08:04:00,
2013-03-13 04:09:00,33.8,25.1,29.03,SSW,207,0.0,0.0,70,0.00,,SKC,0.00,VWS V14.00,2013-03-13 08:09:00,
2013-03-13 04:14:00,33.8,25.1,29.03,SSW,207,0.0,0.0,70,0.00,,SKC,0.00,VWS V14.00,2013-03-13 08:14:00,
2013-03-13 04:19:00,33.8,25.1,29.03,SSW,207,0.0,0.0,70,0.00,,SKC,0.00,VWS V14.00,2013-03-13 08:19:00,
2013-03-13 04:24:00,33.6,24.9,29.03,SSW,207,0.0,0.0,70,0.00,,SKC,0.00,VWS V14.00,2013-03-13 08:24:00,
2013-03-13 04:29:00,33.6,24.9,29.03,SSW,207,0.0,0.0,70,0.00,,SKC,0.00,VWS V14.00,2013-03-13 08:29:00,
2013-03-13 04:34:00,33.6,24.9,29.03,SSW,207,0.0,0.0,70,0.00,,SKC,0.00,VWS V14.00,2013-03-13 08:34:00,
2013-03-13 04:39:00,33.4,25.1,29.03,SSW,207,0.0,0.0,71,0.00,,SKC,0.00,VWS V14.00,2013-03-13 08:39:00,
2013-03-13 04:44:00,33.4,25.1,29.03,SSW,207,0.0,0.0,71,0.00,,SKC,0.00,VWS V14.00,2013-03-13 08:44:00,
2013-03-13 04:49:00,33.4,25.1,29.03,SSW,207,0.0,0.0,71,0.00,,SKC,0.00,VWS V14.00,2013-03-13 08:49:00,
2013-03-13 04:54:00,33.3,24.9,29.03,SSW,207,0.0,0.0,71,0.00,,SKC,0.00,VWS V14.00,2013-03-13 08:54:00,
2013-03-13 04:59:00,33.3,24.9,29.03,SSW,207,0.0,0.0,71,0.00,,SKC,0.00,VWS V14.00,2013-03-13 08:59:00,
2013-03-13 05:04:00,33.3,24.9,29.03,SSW,207,0.0,0.0,71,0.00,,SKC,0.00,VWS V14.00,2013-03-13 09:04:00,
2013-03-13 05:09:00,33.3,24.9,29.03,SSW,207,0.0,0.0,71,0.00,,SKC,0.00,VWS V14.00,2013-03-13 09:09:00,
2013-03-13 05:14:00,33.1,24.7,29.03,SSW,202,0.0,0.0,71,0.00,,SKC,0.00,VWS V14.00,2013-03-13 09:14:00,
2013-03-13 05:19:00,32.9,24.5,29.03,SSW,202,0.0,0.0,71,0.00,,SKC,0.00,VWS V14.00,2013-03-13 09:19:00,
2013-03-13 05:24:00,32.9,24.5,29.03,SSW,201,0.0,0.0,71,0.00,,SKC,0.00,VWS V14.00,2013-03-13 09:24:00,
2013-03-13 05:29:00,32.9,24.5,29.03,SSW,194,0.0,0.0,71,0.00,,SKC,0.00,VWS V14.00,2013-03-13 09:29:00,
2013-03-13 05:34:00,32.9,24.5,29.03,South,190,0.0,0.0,71,0.00,,SKC,0.00,VWS V14.00,2013-03-13 09:34:00,
2013-03-13 05:39:00,32.9,24.5,29.03,SSW,207,0.0,0.0,71,0.00,,SKC,0.00,VWS V14.00,2013-03-13 09:39:00,
2013-03-13 05:44:00,32.9,24.5,29.03,SSW,207,0.0,0.0,71,0.00,,SKC,0.00,VWS V14.00,2013-03-13 09:44:00,
2013-03-13 05:49:00,32.9,24.9,29.03,SSW,207,0.0,0.0,72,0.00,,SKC,0.00,VWS V14.00,2013-03-13 09:49:00,
2013-03-13 05:54:00,32.9,24.9,29.03,SSW,207,0.0,0.0,72,0.00,,SKC,0.00,VWS V14.00,2013-03-13 09:54:00,
2013-03-13 05:59:00,32.9,24.9,29.03,SSW,207,0.0,0.0,72,0.00,,SKC,0.00,VWS V14.00,2013-03-13 09:59:00,
2013-03-13 06:04:00,32.7,24.7,29.03,SSW,207,0.0,0.0,72,0.00,,SKC,0.00,VWS V14.00,2013-03-13 10:04:00,
2013-03-13 06:09:00,32.7,24.7,29.03,SSW,207,0.0,0.0,72,0.00,,SKC,0.00,VWS V14.00,2013-03-13 10:09:00,
2013-03-13 06:14:00,32.7,24.7,29.03,SSW,207,0.0,0.0,72,0.00,,SKC,0.00,VWS V14.00,2013-03-13 10:14:00,
2013-03-13 06:19:00,32.7,24.7,29.03,SSW,207,0.0,0.0,72,0.00,,SKC,0.00,VWS V14.00,2013-03-13 10:19:00,
2013-03-13 06:24:00,32.5,24.5,29.03,SSW,207,0.0,0.0,72,0.00,,SKC,0.00,VWS V14.00,2013-03-13 10:24:00,
2013-03-13 06:29:00,32.7,24.7,29.03,SSW,207,0.0,0.0,72,0.00,,SKC,0.00,VWS V14.00,2013-03-13 10:29:00,
2013-03-13 06:34:00,32.7,24.7,29.03,SSW,207,0.0,0.0,72,0.00,,SKC,0.00,VWS V14.00,2013-03-13 10:34:00,
2013-03-13 06:39:00,32.7,24.7,29.03,SSW,207,0.0,0.0,72,0.00,,SKC,0.00,VWS V14.00,2013-03-13 10:39:00,
2013-03-13 06:44:00,32.7,24.7,29.03,SSW,207,0.0,0.0,72,0.00,,SKC,0.00,VWS V14.00,2013-03-13 10:44:00,
2013-03-13 06:49:00,32.5,24.5,29.03,SSW,207,0.0,0.0,72,0.00,,SKC,0.00,VWS V14.00,2013-03-13 10:49:00,
2013-03-13 06:54:00,32.5,24.9,29.03,SSW,207,0.0,0.0,73,0.00,,SKC,0.00,VWS V14.00,2013-03-13 10:54:00,
2013-03-13 06:59:00,32.5,24.9,29.03,SSW,207,0.0,0.0,73,0.00,,SKC,0.00,VWS V14.00,2013-03-13 10:59:00,
2013-03-13 07:04:00,32.5,24.9,29.06,SSW,206,0.0,0.0,73,0.00,,SKC,0.00,VWS V14.00,2013-03-13 11:04:00,
2013-03-13 07:09:00,32.5,24.9,29.06,SSW,208,0.0,0.0,73,0.00,,SKC,0.00,VWS V14.00,2013-03-13 11:09:00,
2013-03-13 07:14:00,32.5,24.9,29.06,SSW,206,0.0,0.0,73,0.00,,SKC,0.00,VWS V14.00,2013-03-13 11:14:00,
2013-03-13 07:19:00,32.7,25.0,29.06,SSW,205,0.0,0.0,73,0.00,,SKC,0.00,VWS V14.00,2013-03-13 11:19:00,
2013-03-13 07:24:00,32.7,25.0,29.06,SSW,205,0.0,0.0,73,0.00,,SKC,0.00,VWS V14.00,2013-03-13 11:24:00,
2013-03-13 07:29:00,32.9,25.2,29.06,SSW,206,0.0,0.0,73,0.00,,SKC,0.00,VWS V14.00,2013-03-13 11:29:00,
2013-03-13 07:34:00,33.1,25.7,29.06,SSW,206,0.0,0.0,74,0.00,,SKC,0.00,VWS V14.00,2013-03-13 11:34:00,
2013-03-13 07:39:00,33.3,25.9,29.06,SSW,209,0.0,0.0,74,0.00,,SKC,0.00,VWS V14.00,2013-03-13 11:39:00,
2013-03-13 07:44:00,33.4,26.1,29.06,SSW,210,0.0,0.0,74,0.00,,SKC,0.00,VWS V14.00,2013-03-13 11:44:00,
2013-03-13 07:49:00,33.6,26.2,29.06,SW,215,0.0,0.0,74,0.00,,SKC,0.00,VWS V14.00,2013-03-13 11:49:00,
2013-03-13 07:54:00,33.6,26.2,29.06,SW,215,0.0,0.0,74,0.00,,SKC,0.00,VWS V14.00,2013-03-13 11:54:00,
2013-03-13 07:59:00,33.6,26.2,29.06,SSW,202,0.0,0.0,74,0.00,,SKC,0.00,VWS V14.00,2013-03-13 11:59:00,
2013-03-13 08:04:00,33.6,26.2,29.06,SW,229,0.0,0.0,74,0.00,,SKC,0.00,VWS V14.00,2013-03-13 12:04:00,
2013-03-13 08:09:00,33.6,26.2,29.06,SSW,210,0.0,0.0,74,0.00,,SKC,0.00,VWS V14.00,2013-03-13 12:09:00,
2013-03-13 08:14:00,33.6,26.2,29.06,SSW,210,0.0,0.0,74,0.00,,SKC,0.00,VWS V14.00,2013-03-13 12:14:00,
2013-03-13 08:19:00,33.6,26.2,29.09,SSW,208,0.0,0.0,74,0.00,,SKC,0.00,VWS V14.00,2013-03-13 12:19:00,
2013-03-13 08:24:00,33.6,26.2,29.09,SW,218,0.0,0.0,74,0.00,,SKC,0.00,VWS V14.00,2013-03-13 12:24:00,
2013-03-13 08:29:00,33.8,26.4,29.09,SW,225,0.0,0.0,74,0.00,,SKC,0.00,VWS V14.00,2013-03-13 12:29:00,
2013-03-13 08:34:00,33.8,26.4,29.09,SW,230,3.8,3.8,74,0.00,,SKC,0.00,VWS V14.00,2013-03-13 12:34:00,
2013-03-13 08:39:00,34.2,27.1,29.09,SW,218,0.0,3.1,75,0.00,,SKC,0.00,VWS V14.00,2013-03-13 12:39:00,
2013-03-13 08:44:00,34.3,27.2,29.09,SW,228,0.0,0.0,75,0.00,,SKC,0.00,VWS V14.00,2013-03-13 12:44:00,
2013-03-13 08:49:00,34.5,27.4,29.09,SW,220,0.0,0.0,75,0.00,,SKC,0.00,VWS V14.00,2013-03-13 12:49:00,
2013-03-13 08:54:00,34.7,27.6,29.09,SW,227,0.0,0.0,75,0.00,,SKC,0.00,VWS V14.00,2013-03-13 12:54:00,
2013-03-13 08:59:00,34.9,27.8,29.09,SW,230,0.0,0.0,75,0.00,,SKC,0.00,VWS V14.00,2013-03-13 12:59:00,
2013-03-13 09:04:00,35.1,28.0,29.09,SW,230,0.0,0.0,75,0.00,,SKC,0.00,VWS V14.00,2013-03-13 13:04:00,
2013-03-13 09:09:00,35.1,28.0,29.09,SW,222,0.0,0.0,75,0.00,,SKC,0.00,VWS V14.00,2013-03-13 13:09:00,
2013-03-13 09:14:00,35.4,28.6,29.09,SSW,210,0.0,0.0,76,0.00,,SKC,0.00,VWS V14.00,2013-03-13 13:14:00,
2013-03-13 09:19:00,35.4,28.6,29.12,SW,224,0.0,0.0,76,0.00,,SKC,0.00,VWS V14.00,2013-03-13 13:19:00,
2013-03-13 09:24:00,35.6,28.5,29.12,SW,230,0.0,0.0,75,0.00,,SKC,0.00,VWS V14.00,2013-03-13 13:24:00,
2013-03-13 09:29:00,35.8,28.6,29.12,SW,217,0.0,0.0,75,0.00,,SKC,0.00,VWS V14.00,2013-03-13 13:29:00,
2013-03-13 09:34:00,36.1,29.3,29.12,SW,228,0.0,0.0,76,0.00,,SKC,0.00,VWS V14.00,2013-03-13 13:34:00,
2013-03-13 09:39:00,36.5,29.7,29.12,SW,221,3.8,4.9,76,0.00,,SKC,0.00,VWS V14.00,2013-03-13 13:39:00,
2013-03-13 09:44:00,37.2,30.4,29.12,WSW,240,5.9,5.9,76,0.00,,SKC,0.00,VWS V14.00,2013-03-13 13:44:00,
2013-03-13 09:50:00,37.6,30.7,29.12,WSW,239,0.0,4.9,76,0.00,,SKC,0.00,VWS V14.00,2013-03-13 13:50:00,
2013-03-13 09:55:00,37.9,31.1,29.12,NW,317,0.0,2.7,76,0.00,,SKC,0.00,VWS V14.00,2013-03-13 13:55:00,
2013-03-13 10:00:00,38.1,30.9,29.12,SSW,211,0.0,2.7,75,0.00,,SKC,0.00,VWS V14.00,2013-03-13 14:00:00,
2013-03-13 10:05:00,38.1,30.9,29.12,WSW,243,0.0,4.0,75,0.00,,SKC,0.00,VWS V14.00,2013-03-13 14:05:00,
2013-03-13 10:10:00,37.9,30.7,29.12,SW,235,0.0,4.0,75,0.00,,SKC,0.00,VWS V14.00,2013-03-13 14:10:00,
2013-03-13 10:15:00,37.9,30.7,29.12,West,273,0.0,0.0,75,0.00,,SKC,0.00,VWS V14.00,2013-03-13 14:15:00,
2013-03-13 10:20:00,38.1,30.9,29.12,NNW,327,0.0,4.0,75,0.00,,SKC,0.00,VWS V14.00,2013-03-13 14:20:00,
2013-03-13 10:25:00,38.3,30.8,29.12,WSW,252,3.2,6.3,74,0.00,,SKC,0.00,VWS V14.00,2013-03-13 14:25:00,
2013-03-13 10:30:00,38.3,30.4,29.12,North,1,4.3,6.3,73,0.00,,SKC,0.00,VWS V14.00,2013-03-13 14:30:00,
2013-03-13 10:35:00,38.1,29.6,29.12,North,357,2.7,5.4,71,0.00,,SKC,0.00,VWS V14.00,2013-03-13 14:35:00,
2013-03-13 10:40:00,38.1,29.2,29.12,WSW,248,4.8,6.7,70,0.00,,SKC,0.00,VWS V14.00,2013-03-13 14:40:00,
2013-03-13 10:45:00,38.5,29.2,29.12,NW,321,0.0,8.1,69,0.00,,SKC,0.00,VWS V14.00,2013-03-13 14:45:00,
2013-03-13 10:50:00,38.8,29.5,29.15,NW,326,3.2,8.1,69,0.00,,SKC,0.00,VWS V14.00,2013-03-13 14:50:00,
2013-03-13 10:55:00,39.2,28.8,29.15,West,264,4.8,8.1,66,0.00,,SKC,0.00,VWS V14.00,2013-03-13 14:55:00,
2013-03-13 11:00:00,38.8,27.7,29.15,NNW,328,6.4,8.1,64,0.00,,SKC,0.00,VWS V14.00,2013-03-13 15:00:00,
2013-03-13 11:05:00,39.0,28.3,29.15,WNW,291,0.0,3.6,65,0.00,,SKC,0.00,VWS V14.00,2013-03-13 15:05:00,
2013-03-13 11:10:00,39.6,28.4,29.15,NNW,330,3.8,8.7,64,0.00,,SKC,0.00,VWS V14.00,2013-03-13 15:10:00,
2013-03-13 11:15:00,39.7,27.8,29.15,NNW,333,6.4,8.1,62,0.00,,SKC,0.00,VWS V14.00,2013-03-13 15:15:00,
2013-03-13 11:20:00,39.9,28.4,29.15,NNW,332,4.3,8.1,63,0.00,,SKC,0.00,VWS V14.00,2013-03-13 15:20:00,
2013-03-13 11:25:00,40.6,28.6,29.15,WSW,240,0.0,4.5,62,0.00,,SKC,0.00,VWS V14.00,2013-03-13 15:25:00,
2013-03-13 11:30:00,41.0,27.8,29.15,NW,316,6.4,8.3,59,0.00,,SKC,0.00,VWS V14.00,2013-03-13 15:30:00,
2013-03-13 11:35:00,41.2,27.1,29.15,NW,311,3.8,6.3,57,0.00,,SKC,0.00,VWS V14.00,2013-03-13 15:35:00,
2013-03-13 11:40:00,41.5,27.5,29.15,West,262,0.0,4.0,57,0.00,,SKC,0.00,VWS V14.00,2013-03-13 15:40:00,
2013-03-13 11:45:00,41.2,26.2,29.15,NNW,332,7.5,10.1,55,0.00,,SKC,0.00,VWS V14.00,2013-03-13 15:45:00,
2013-03-13 11:50:00,41.0,25.6,29.15,NNW,336,7.0,7.0,54,0.00,,SKC,0.00,VWS V14.00,2013-03-13 15:50:00,
2013-03-13 11:55:00,41.2,26.2,29.15,NE,56,4.8,6.3,55,0.00,,SKC,0.00,VWS V14.00,2013-03-13 15:55:00,
2013-03-13 12:00:00,41.9,28.2,29.15,WNW,292,0.0,2.7,58,0.00,,SKC,0.00,VWS V14.00,2013-03-13 16:00:00,
2013-03-13 12:05:00,42.4,27.4,29.15,NW,310,7.5,7.5,55,0.00,,SKC,0.00,VWS V14.00,2013-03-13 16:05:00,
2013-03-13 12:10:00,42.6,27.6,29.15,WSW,246,3.2,3.6,55,0.00,,SKC,0.00,VWS V14.00,2013-03-13 16:10:00,
2013-03-13 12:15:00,42.8,27.8,29.15,SW,225,2.7,8.7,55,0.00,,SKC,0.00,VWS V14.00,2013-03-13 16:15:00,
2013-03-13 12:20:00,43.0,28.4,29.15,WSW,244,4.3,4.3,56,0.00,,SKC,0.00,VWS V14.00,2013-03-13 16:20:00,
2013-03-13 12:25:00,43.0,27.0,29.15,WSW,255,4.3,7.2,53,0.00,,SKC,0.00,VWS V14.00,2013-03-13 16:25:00,
2013-03-13 12:30:00,43.2,27.7,29.15,WNW,303,0.0,7.2,54,0.00,,SKC,0.00,VWS V14.00,2013-03-13 16:30:00,
2013-03-13 12:35:00,43.0,27.0,29.15,NW,306,0.0,10.1,53,0.00,,SKC,0.00,VWS V14.00,2013-03-13 16:35:00,
2013-03-13 12:40:00,43.3,25.5,29.15,NNW,335,6.4,6.4,49,0.00,,SKC,0.00,VWS V14.00,2013-03-13 16:40:00,
2013-03-13 12:45:00,43.0,26.1,29.15,West,277,3.2,5.8,51,0.00,,SKC,0.00,VWS V14.00,2013-03-13 16:45:00,
2013-03-13 12:50:00,43.3,26.9,29.15,NNW,330,4.3,5.4,52,0.00,,SKC,0.00,VWS V14.00,2013-03-13 16:50:00,
2013-03-13 12:55:00,43.5,25.6,29.15,WSW,248,4.3,6.3,49,0.00,,SKC,0.00,VWS V14.00,2013-03-13 16:55:00,
2013-03-13 13:00:00,43.3,26.0,29.15,NNW,329,3.8,3.8,50,0.00,,SKC,0.00,VWS V14.00,2013-03-13 17:00:00,
2013-03-13 13:05:00,43.9,26.5,29.15,WNW,292,3.2,8.7,50,0.00,,SKC,0.00,VWS V14.00,2013-03-13 17:05:00,
2013-03-13 13:10:00,44.4,26.5,29.15,West,269,9.7,9.7,49,0.00,,SKC,0.00,VWS V14.00,2013-03-13 17:10:00,
2013-03-13 13:15:00,45.0,27.5,29.15,SW,235,3.8,8.1,50,0.00,,SKC,0.00,VWS V14.00,2013-03-13 17:15:00,
2013-03-13 13:20:00,45.5,28.0,29.15,NW,307,4.3,4.9,50,0.00,,SKC,0.00,VWS V14.00,2013-03-13 17:20:00,
2013-03-13 13:25:00,45.9,27.8,29.15,NW,307,4.3,6.3,49,0.00,,SKC,0.00,VWS V14.00,2013-03-13 17:25:00,
2013-03-13 13:30:00,46.0,27.5,29.15,West,270,3.2,3.6,48,0.00,,SKC,0.00,VWS V14.00,2013-03-13 17:30:00,
2013-03-13 13:35:00,45.1,25.6,29.15,SW,230,3.2,8.1,46,0.00,,SKC,0.00,VWS V14.00,2013-03-13 17:35:00,
2013-03-13 13:40:00,44.8,26.3,29.15,WNW,303,5.9,5.9,48,0.00,,SKC,0.00,VWS V14.00,2013-03-13 17:40:00,
2013-03-13 13:45:00,45.3,26.8,29.15,North,353,3.2,5.8,48,0.00,,SKC,0.00,VWS V14.00,2013-03-13 17:45:00,
2013-03-13 13:50:00,45.3,26.3,29.15,WNW,297,7.5,7.5,47,0.00,,SKC,0.00,VWS V14.00,2013-03-13 17:50:00,
2013-03-13 13:55:00,44.8,25.8,29.15,NNW,334,3.8,6.3,47,0.00,,SKC,0.00,VWS V14.00,2013-03-13 17:55:00,
2013-03-13 14:00:00,45.1,25.1,29.15,NW,320,0.0,2.7,45,0.00,,SKC,0.00,VWS V14.00,2013-03-13 18:00:00,
2013-03-13 14:05:00,45.1,25.1,29.15,WSW,242,0.0,6.3,45,0.00,,SKC,0.00,VWS V14.00,2013-03-13 18:05:00,
2013-03-13 14:10:00,46.0,26.4,29.15,NNW,337,3.2,4.9,46,0.00,,SKC,0.00,VWS V14.00,2013-03-13 18:10:00,
2013-03-13 14:15:00,46.8,26.0,29.15,NNW,334,4.3,6.3,44,0.00,,SKC,0.00,VWS V14.00,2013-03-13 18:15:00,
2013-03-13 14:20:00,46.4,25.7,29.15,WSW,238,6.4,6.4,44,0.00,,SKC,0.00,VWS V14.00,2013-03-13 18:20:00,
2013-03-13 14:25:00,45.9,24.6,29.15,NW,312,3.8,6.3,43,0.00,,SKC,0.00,VWS V14.00,2013-03-13 18:25:00,
2013-03-13 14:30:00,45.0,22.7,29.15,NW,325,3.8,5.4,41,0.00,,SKC,0.00,VWS V14.00,2013-03-13 18:30:00,
2013-03-13 14:35:00,44.6,22.4,29.15,WSW,239,3.8,6.3,41,0.00,,SKC,0.00,VWS V14.00,2013-03-13 18:35:00,
2013-03-13 14:40:00,44.8,23.1,29.15,NW,321,4.3,4.3,42,0.00,,SKC,0.00,VWS V14.00,2013-03-13 18:40:00,
2013-03-13 14:45:00,44.8,22.5,29.15,West,277,2.7,5.8,41,0.00,,SKC,0.00,VWS V14.00,2013-03-13 18:45:00,
2013-03-13 14:50:00,45.5,22.6,29.15,NW,322,6.4,6.4,40,0.00,,SKC,0.00,VWS V14.00,2013-03-13 18:50:00,
2013-03-13 14:55:00,45.7,23.4,29.15,West,273,0.0,7.6,41,0.00,,SKC,0.00,VWS V14.00,2013-03-13 18:55:00,
2013-03-13 15:00:00,46.0,24.2,29.15,WSW,251,0.0,0.0,42,0.00,,SKC,0.00,VWS V14.00,2013-03-13 19:00:00,
2013-03-13 15:05:00,45.5,22.6,29.15,NW,319,2.7,6.3,40,0.00,,SKC,0.00,VWS V14.00,2013-03-13 19:05:00,
2013-03-13 15:10:00,44.8,22.0,29.15,NW,308,3.8,3.8,40,0.00,,SKC,0.00,VWS V14.00,2013-03-13 19:10:00,
2013-03-13 15:15:00,45.1,22.9,29.15,WSW,237,3.2,5.8,41,0.00,,SKC,0.00,VWS V14.00,2013-03-13 19:15:00,
2013-03-13 15:20:00,45.5,23.8,29.15,WNW,292,0.0,3.1,42,0.00,,SKC,0.00,VWS V14.00,2013-03-13 19:20:00,
2013-03-13 15:25:00,46.0,23.7,29.15,SSW,206,0.0,4.9,41,0.00,,SKC,0.00,VWS V14.00,2013-03-13 19:25:00,
2013-03-13 15:30:00,46.0,23.1,29.15,South,188,3.8,8.7,40,0.00,,SKC,0.00,VWS V14.00,2013-03-13 19:30:00,
2013-03-13 15:35:00,45.5,22.6,29.15,SW,236,3.2,8.7,40,0.00,,SKC,0.00,VWS V14.00,2013-03-13 19:35:00,
2013-03-13 15:40:00,45.1,22.3,29.15,South,187,6.4,6.4,40,0.00,,SKC,0.00,VWS V14.00,2013-03-13 19:40:00,
2013-03-13 15:45:00,45.9,22.9,29.15,South,190,4.3,7.6,40,0.00,,SKC,0.00,VWS V14.00,2013-03-13 19:45:00,
2013-03-13 15:50:00,46.8,23.7,29.15,WSW,247,4.3,4.9,40,0.00,,SKC,0.00,VWS V14.00,2013-03-13 19:50:00,
2013-03-13 15:55:00,47.3,24.2,29.15,North,4,2.7,4.9,40,0.00,,SKC,0.00,VWS V14.00,2013-03-13 19:55:00,
2013-03-13 16:01:00,47.3,23.6,29.15,NW,317,6.4,6.4,39,0.00,,SKC,0.00,VWS V14.00,2013-03-13 20:01:00,
2013-03-13 16:06:00,46.8,23.1,29.15,WSW,243,3.8,8.3,39,0.00,,SKC,0.00,VWS V14.00,2013-03-13 20:06:00,
2013-03-13 16:11:00,46.4,22.8,29.15,WSW,244,0.0,5.4,39,0.00,,SKC,0.00,VWS V14.00,2013-03-13 20:11:00,
2013-03-13 16:16:00,46.0,23.1,29.15,NNW,335,8.6,8.6,40,0.00,,SKC,0.00,VWS V14.00,2013-03-13 20:16:00,
2013-03-13 16:21:00,45.7,22.2,29.15,WSW,245,7.0,7.0,39,0.00,,SKC,0.00,VWS V14.00,2013-03-13 20:21:00,
2013-03-13 16:26:00,45.1,21.1,29.15,NNW,335,7.0,7.6,38,0.00,,SKC,0.00,VWS V14.00,2013-03-13 20:26:00,
2013-03-13 16:31:00,44.2,20.3,29.15,WNW,284,4.3,7.2,38,0.00,,SKC,0.00,VWS V14.00,2013-03-13 20:31:00,
2013-03-13 16:36:00,44.1,20.7,29.15,NW,310,3.8,7.2,39,0.00,,SKC,0.00,VWS V14.00,2013-03-13 20:36:00,
2013-03-13 16:41:00,44.1,20.7,29.15,WSW,257,0.0,4.0,39,0.00,,SKC,0.00,VWS V14.00,2013-03-13 20:41:00,
2013-03-13 16:46:00,44.2,20.9,29.15,North,6,4.3,5.8,39,0.00,,SKC,0.00,VWS V14.00,2013-03-13 20:46:00,
2013-03-13 16:51:00,44.2,20.9,29.15,WNW,301,3.2,4.9,39,0.00,,SKC,0.00,VWS V14.00,2013-03-13 20:51:00,
2013-03-13 16:56:00,44.2,20.9,29.15,WNW,291,4.8,4.9,39,0.00,,SKC,0.00,VWS V14.00,2013-03-13 20:56:00,
2013-03-13 17:09:00,43.7,19.8,29.15,West,259,5.9,8.3,38,0.00,,SKC,0.00,VWS V14.00,2013-03-13 21:09:00,
2013-03-13 17:16:00,43.3,19.5,29.15,West,265,3.8,7.6,38,0.00,,SKC,0.00,VWS V14.00,2013-03-13 21:16:00,
2013-03-13 17:21:00,43.3,20.1,29.15,WSW,241,0.0,3.6,39,0.00,,SKC,0.00,VWS V14.00,2013-03-13 21:21:00,
2013-03-13 17:26:00,43.3,20.1,29.15,West,278,0.0,7.2,39,0.00,,SKC,0.00,VWS V14.00,2013-03-13 21:26:00,
2013-03-13 17:31:00,43.3,20.1,29.15,NNW,340,5.9,5.9,39,0.00,,SKC,0.00,VWS V14.00,2013-03-13 21:31:00,
2013-03-13 17:36:00,43.3,20.1,29.15,North,353,3.2,5.8,39,0.00,,SKC,0.00,VWS V14.00,2013-03-13 21:36:00,
2013-03-13 17:41:00,43.0,19.7,29.15,SW,232,7.0,8.1,39,0.00,,SKC,0.00,VWS V14.00,2013-03-13 21:41:00,
2013-03-13 17:46:00,42.3,19.1,29.15,NNW,335,9.1,9.1,39,0.00,,SKC,0.00,VWS V14.00,2013-03-13 21:46:00,
2013-03-13 17:51:00,41.9,18.8,29.18,NNW,334,3.8,5.8,39,0.00,,SKC,0.00,VWS V14.00,2013-03-13 21:51:00,
2013-03-13 18:00:00,41.4,18.3,29.18,NW,311,3.8,8.3,39,0.00,,SKC,0.00,VWS V14.00,2013-03-13 22:00:00,
2013-03-13 18:06:00,41.2,18.1,29.18,WNW,283,2.7,7.6,39,0.00,,SKC,0.00,VWS V14.00,2013-03-13 22:06:00,
2013-03-13 18:11:00,41.0,18.0,29.18,NNW,328,0.0,4.0,39,0.00,,SKC,0.00,VWS V14.00,2013-03-13 22:11:00,
2013-03-13 18:16:00,41.0,18.0,29.18,NW,316,4.3,4.3,39,0.00,,SKC,0.00,VWS V14.00,2013-03-13 22:16:00,
2013-03-13 18:21:00,40.8,17.8,29.18,NNE,12,0.0,0.0,39,0.00,,SKC,0.00,VWS V14.00,2013-03-13 22:21:00,
2013-03-13 18:26:00,40.6,17.6,29.18,NE,38,3.2,4.9,39,0.00,,SKC,0.00,VWS V14.00,2013-03-13 22:26:00,
2013-03-13 18:37:00,40.5,18.1,29.18,NW,307,9.1,9.1,40,0.00,,SKC,0.00,VWS V14.00,2013-03-13 22:37:00,
2013-03-13 18:42:00,40.5,18.1,29.18,NW,323,3.8,5.8,40,0.00,,SKC,0.00,VWS V14.00,2013-03-13 22:42:00,
2013-03-13 18:47:00,40.3,17.9,29.18,West,271,5.9,8.1,40,0.00,,SKC,0.00,VWS V14.00,2013-03-13 22:47:00,
2013-03-13 18:52:00,39.9,17.6,29.18,NW,318,2.7,6.3,40,0.00,,SKC,0.00,VWS V14.00,2013-03-13 22:52:00,
2013-03-13 18:57:00,39.6,17.2,29.18,NW,325,4.3,7.6,40,0.00,,SKC,0.00,VWS V14.00,2013-03-13 22:57:00,
2013-03-13 19:02:00,39.4,17.1,29.18,NNW,329,3.2,4.9,40,0.00,,SKC,0.00,VWS V14.00,2013-03-13 23:02:00,
2013-03-13 19:07:00,39.2,16.9,29.21,NW,318,3.8,7.2,40,0.00,,SKC,0.00,VWS V14.00,2013-03-13 23:07:00,
2013-03-13 19:17:00,38.7,16.4,29.21,NNW,330,3.2,5.8,40,0.00,,SKC,0.00,VWS V14.00,2013-03-13 23:17:00,
2013-03-13 19:22:00,38.5,16.3,29.21,NW,304,2.7,5.8,40,0.00,,SKC,0.00,VWS V14.00,2013-03-13 23:22:00,
2013-03-13 19:27:00,38.1,15.9,29.21,West,276,3.2,5.8,40,0.00,,SKC,0.00,VWS V14.00,2013-03-13 23:27:00,
2013-03-13 19:32:00,37.8,15.6,29.21,NNE,25,3.2,5.8,40,0.00,,SKC,0.00,VWS V14.00,2013-03-13 23:32:00,
2013-03-13 19:37:00,37.4,15.3,29.21,West,281,3.2,7.6,40,0.00,,SKC,0.00,VWS V14.00,2013-03-13 23:37:00,
2013-03-13 19:42:00,37.2,15.7,29.21,NNW,339,7.0,7.0,41,0.00,,SKC,0.00,VWS V14.00,2013-03-13 23:42:00,
2013-03-13 19:47:00,37.0,15.5,29.21,NW,308,2.7,7.6,41,0.00,,SKC,0.00,VWS V14.00,2013-03-13 23:47:00,
2013-03-13 19:52:00,36.7,15.2,29.21,SW,235,0.0,5.4,41,0.00,,SKC,0.00,VWS V14.00,2013-03-13 23:52:00,
2013-03-13 19:57:00,36.3,14.9,29.21,NW,315,4.8,5.8,41,0.00,,SKC,0.00,VWS V14.00,2013-03-13 23:57:00,
2013-03-13 20:02:00,36.1,14.7,29.21,West,280,3.2,4.0,41,0.00,,SKC,0.00,VWS V14.00,2013-03-14 00:02:00,
2013-03-13 20:07:00,36.0,14.6,29.23,NW,305,4.8,5.8,41,0.00,,SKC,0.00,VWS V14.00,2013-03-14 00:07:00,
2013-03-13 20:12:00,35.8,14.4,29.23,SW,219,0.0,3.6,41,0.00,,SKC,0.00,VWS V14.00,2013-03-14 00:12:00,
2013-03-13 20:17:00,35.6,14.2,29.23,NW,323,0.0,3.6,41,0.00,,SKC,0.00,VWS V14.00,2013-03-14 00:17:00,
2013-03-13 20:22:00,35.4,14.1,29.23,NW,308,5.9,6.3,41,0.00,,SKC,0.00,VWS V14.00,2013-03-14 00:22:00,
2013-03-13 20:27:00,35.4,14.1,29.23,WSW,251,4.3,7.6,41,0.00,,SKC,0.00,VWS V14.00,2013-03-14 00:27:00,
2013-03-13 20:32:00,35.1,13.8,29.23,NW,315,3.2,3.6,41,0.00,,SKC,0.00,VWS V14.00,2013-03-14 00:32:00,
2013-03-13 20:37:00,35.1,13.8,29.23,NW,318,0.0,4.0,41,0.00,,SKC,0.00,VWS V14.00,2013-03-14 00:37:00,
2013-03-13 20:42:00,34.9,14.1,29.23,NE,41,0.0,3.6,42,0.00,,SKC,0.00,VWS V14.00,2013-03-14 00:42:00,
2013-03-13 20:47:00,34.7,13.4,29.23,NW,315,0.0,4.0,41,0.00,,SKC,0.00,VWS V14.00,2013-03-14 00:47:00,
2013-03-13 20:52:00,34.5,13.3,29.23,NW,320,0.0,3.6,41,0.00,,SKC,0.00,VWS V14.00,2013-03-14 00:52:00,
2013-03-13 20:57:00,34.3,13.1,29.23,West,264,0.0,4.9,41,0.00,,SKC,0.00,VWS V14.00,2013-03-14 00:57:00,
2013-03-13 21:02:00,34.3,13.1,29.23,NNW,337,0.0,4.0,41,0.00,,SKC,0.00,VWS V14.00,2013-03-14 01:02:00,
2013-03-13 21:08:00,34.2,13.5,29.23,NW,320,6.4,6.4,42,0.00,,SKC,0.00,VWS V14.00,2013-03-14 01:08:00,
2013-03-13 21:13:00,34.2,13.5,29.23,WNW,293,0.0,3.6,42,0.00,,SKC,0.00,VWS V14.00,2013-03-14 01:13:00,
2013-03-13 21:18:00,34.0,13.3,29.23,SW,232,0.0,3.6,42,0.00,,SKC,0.00,VWS V14.00,2013-03-14 01:18:00,
2013-03-13 21:23:00,34.0,13.3,29.23,NNW,328,3.2,3.2,42,0.00,,SKC,0.00,VWS V14.00,2013-03-14 01:23:00,
2013-03-13 21:28:00,33.8,13.1,29.23,NW,315,0.0,4.0,42,0.00,,SKC,0.00,VWS V14.00,2013-03-14 01:28:00,
2013-03-13 21:33:00,33.8,13.1,29.23,NW,309,0.0,3.6,42,0.00,,SKC,0.00,VWS V14.00,2013-03-14 01:33:00,
2013-03-13 21:38:00,33.6,13.0,29.23,NW,306,0.0,4.0,42,0.00,,SKC,0.00,VWS V14.00,2013-03-14 01:38:00,
2013-03-13 21:43:00,33.4,12.8,29.23,NW,317,0.0,3.1,42,0.00,,SKC,0.00,VWS V14.00,2013-03-14 01:43:00,
2013-03-13 21:48:00,33.4,13.4,29.23,WSW,247,0.0,4.9,43,0.00,,SKC,0.00,VWS V14.00,2013-03-14 01:48:00,
2013-03-13 21:53:00,33.3,13.2,29.23,WNW,294,0.0,0.0,43,0.00,,SKC,0.00,VWS V14.00,2013-03-14 01:53:00,
2013-03-13 21:58:00,33.1,13.0,29.23,NW,309,0.0,3.6,43,0.00,,SKC,0.00,VWS V14.00,2013-03-14 01:58:00,
2013-03-13 22:03:00,33.1,13.0,29.23,SW,224,0.0,0.0,43,0.00,,SKC,0.00,VWS V14.00,2013-03-14 02:03:00,
2013-03-13 22:08:00,33.1,13.0,29.23,NNW,328,0.0,0.0,43,0.00,,SKC,0.00,VWS V14.00,2013-03-14 02:08:00,
2013-03-13 22:13:00,32.9,12.9,29.23,SW,236,0.0,0.0,43,0.00,,SKC,0.00,VWS V14.00,2013-03-14 02:13:00,
2013-03-13 22:18:00,32.9,12.9,29.23,NW,319,0.0,0.0,43,0.00,,SKC,0.00,VWS V14.00,2013-03-14 02:18:00,
2013-03-13 22:23:00,32.7,12.7,29.23,NW,319,0.0,0.0,43,0.00,,SKC,0.00,VWS V14.00,2013-03-14 02:23:00,
2013-03-13 22:28:00,32.7,13.2,29.23,NW,319,0.0,0.0,44,0.00,,SKC,0.00,VWS V14.00,2013-03-14 02:28:00,
2013-03-13 22:33:00,32.7,13.2,29.23,SSW,213,0.0,0.0,44,0.00,,SKC,0.00,VWS V14.00,2013-03-14 02:33:00,
2013-03-13 22:38:00,32.5,13.1,29.23,WNW,297,0.0,4.0,44,0.00,,SKC,0.00,VWS V14.00,2013-03-14 02:38:00,
2013-03-13 22:43:00,32.5,13.1,29.23,SW,225,3.8,3.8,44,0.00,,SKC,0.00,VWS V14.00,2013-03-14 02:43:00,
2013-03-13 22:48:00,32.5,13.1,29.26,WNW,301,0.0,5.4,44,0.00,,SKC,0.00,VWS V14.00,2013-03-14 02:48:00,
2013-03-13 22:53:00,32.5,13.1,29.26,WNW,294,0.0,5.8,44,0.00,,SKC,0.00,VWS V14.00,2013-03-14 02:53:00,
2013-03-13 22:58:00,32.5,13.1,29.26,NW,307,0.0,5.8,44,0.00,,SKC,0.00,VWS V14.00,2013-03-14 02:58:00,
2013-03-13 23:03:00,32.5,13.1,29.26,NW,308,0.0,3.6,44,0.00,,SKC,0.00,VWS V14.00,2013-03-14 03:03:00,
2013-03-13 23:08:00,32.5,13.1,29.26,NW,306,0.0,3.6,44,0.00,,SKC,0.00,VWS V14.00,2013-03-14 03:08:00,
2013-03-13 23:13:00,32.4,12.9,29.26,WNW,290,0.0,0.0,44,0.00,,SKC,0.00,VWS V14.00,2013-03-14 03:13:00,
2013-03-13 23:18:00,32.2,12.7,29.26,NW,323,0.0,0.0,44,0.00,,SKC,0.00,VWS V14.00,2013-03-14 03:18:00,
2013-03-13 23:23:00,32.2,12.7,29.26,West,277,0.0,0.0,44,0.00,,SKC,0.00,VWS V14.00,2013-03-14 03:23:00,
2013-03-13 23:28:00,32.2,12.7,29.26,NNW,331,0.0,0.0,44,0.00,,SKC,0.00,VWS V14.00,2013-03-14 03:28:00,
2013-03-13 23:33:00,32.2,12.7,29.26,NW,317,3.2,3.2,44,0.00,,SKC,0.00,VWS V14.00,2013-03-14 03:33:00,
2013-03-13 23:38:00,32.2,12.7,29.26,SW,225,0.0,4.0,44,0.00,,SKC,0.00,VWS V14.00,2013-03-14 03:38:00,
2013-03-13 23:43:00,32.0,13.1,29.26,West,278,0.0,0.0,45,0.00,,SKC,0.00,VWS V14.00,2013-03-14 03:43:00,
2013-03-13 23:48:00,32.0,13.1,29.26,SW,230,0.0,0.0,45,0.00,,SKC,0.00,VWS V14.00,2013-03-14 03:48:00,
2013-03-13 23:53:00,32.0,13.1,29.26,NW,326,0.0,0.0,45,0.00,,SKC,0.00,VWS V14.00,2013-03-14 03:53:00,
2013-03-13 23:58:00,32.0,13.1,29.26,West,264,0.0,0.0,45,0.00,,SKC,0.00,VWS V14.00,2013-03-14 03:58:00,